| time (UTC) | temp C | wind direction | speed KPH | gust KPH | rain 1hr cm | rain 24hr cm | rain mn cm | humidity % | barometer mb |
| 20260509034945 | 12 | 218 | 11.3 | 27.4 | 0.00 | 0.00 | 0.00 | 52 | 1017.4 |
| 20260509034443 | 12 | 234 | 17.7 | 32.2 | 0.00 | 0.00 | 0.00 | 52 | 1017.5 |
| 20260509033940 | 12 | 220 | 19.3 | 27.4 | 0.00 | 0.00 | 0.00 | 51 | 1017.4 |
| 20260509033437 | 12 | 237 | 17.7 | 25.7 | 0.00 | 0.00 | 0.00 | 51 | 1017.3 |
| 20260509032933 | 12 | 214 | 8.0 | 20.9 | 0.00 | 0.00 | 0.00 | 51 | 1017.2 |
| 20260509032431 | 12 | 227 | 11.3 | 32.2 | 0.00 | 0.00 | 0.00 | 51 | 1017.3 |
| 20260509031929 | 12 | 206 | 6.4 | 27.4 | 0.00 | 0.00 | 0.00 | 50 | 1017.0 |
| 20260509031426 | 12 | 215 | 11.3 | 32.2 | 0.00 | 0.00 | 0.00 | 50 | 1016.7 |
| 20260509030923 | 13 | 51 | 4.8 | 27.4 | 0.00 | 0.00 | 0.00 | 50 | 1016.8 |
| 20260509030421 | 13 | 214 | 8.0 | 33.8 | 0.00 | 0.00 | 0.00 | 49 | 1016.9 |
| 20260509025918 | 13 | 227 | 11.3 | 32.2 | 0.00 | 0.00 | 0.00 | 48 | 1016.7 |
| 20260509025414 | 13 | 203 | 8.0 | 33.8 | 0.00 | 0.00 | 0.00 | 48 | 1016.8 |
| 20260509024909 | 13 | 243 | 8.0 | 22.5 | 0.00 | 0.00 | 0.00 | 48 | 1016.7 |
| 20260509024405 | 13 | 228 | 6.4 | 38.6 | 0.00 | 0.00 | 0.00 | 47 | 1016.6 |
| 20260509023902 | 14 | 221 | 19.3 | 40.2 | 0.00 | 0.00 | 0.00 | 47 | 1016.6 |
| 20260509023400 | 14 | 223 | 14.5 | 48.3 | 0.00 | 0.00 | 0.00 | 47 | 1016.6 |
| 20260509022856 | 14 | 153 | 3.2 | 38.6 | 0.00 | 0.00 | 0.00 | 46 | 1016.6 |
| 20260509022353 | 15 | 227 | 8.0 | 37.0 | 0.00 | 0.00 | 0.00 | 46 | 1016.2 |
| 20260509021850 | 15 | 234 | 11.3 | 33.8 | 0.00 | 0.00 | 0.00 | 45 | 1016.2 |
| 20260509021347 | 15 | 220 | 11.3 | 37.0 | 0.00 | 0.00 | 0.00 | 45 | 1016.3 |
| 20260509020845 | 15 | 164 | 12.9 | 24.1 | 0.00 | 0.00 | 0.00 | 44 | 1016.0 |
| 20260509020343 | 15 | 246 | 8.0 | 33.8 | 0.00 | 0.00 | 0.00 | 44 | 1016.1 |
| 20260509015840 | 15 | 236 | 17.7 | 32.2 | 0.00 | 0.00 | 0.00 | 44 | 1016.1 |
| 20260509015338 | 15 | 216 | 6.4 | 24.1 | 0.00 | 0.00 | 0.00 | 43 | 1015.8 |
| 20260509014834 | 15 | 222 | 11.3 | 24.1 | 0.00 | 0.00 | 0.00 | 42 | 1016.1 |
| 20260509014331 | 15 | 218 | 14.5 | 38.6 | 0.00 | 0.00 | 0.00 | 43 | 1016.0 |
| 20260509013828 | 15 | 220 | 9.7 | 33.8 | 0.00 | 0.00 | 0.00 | 43 | 1015.8 |
| 20260509013325 | 15 | 184 | 19.3 | 32.2 | 0.00 | 0.00 | 0.00 | 43 | 1015.8 |
| 20260509012820 | 15 | 222 | 12.9 | 32.2 | 0.00 | 0.00 | 0.00 | 42 | 1016.0 |
| 20260509012317 | 15 | 231 | 8.0 | 35.4 | 0.00 | 0.00 | 0.00 | 42 | 1016.1 |
| 20260509011815 | 15 | 228 | 9.7 | 45.1 | 0.00 | 0.00 | 0.00 | 42 | 1016.0 |
| 20260509011312 | 15 | 271 | 9.7 | 43.5 | 0.00 | 0.00 | 0.00 | 42 | 1015.7 |
| 20260509010810 | 16 | 227 | 14.5 | 38.6 | 0.00 | 0.00 | 0.00 | 41 | 1016.1 |
| 20260509010306 | 16 | 202 | 8.0 | 30.6 | 0.00 | 0.00 | 0.00 | 41 | 1015.8 |
| 20260509005803 | 16 | 179 | 4.8 | 30.6 | 0.00 | 0.00 | 0.00 | 41 | 1016.0 |
| 20260509005256 | 16 | 195 | 11.3 | 29.0 | 0.00 | 0.00 | 0.00 | 40 | 1016.1 |
| 20260509004755 | 15 | 214 | 6.4 | 32.2 | 0.00 | 0.00 | 0.00 | 41 | 1015.8 |
| 20260509004253 | 15 | 218 | 11.3 | 29.0 | 0.00 | 0.00 | 0.00 | 41 | 1015.8 |
| 20260509003751 | 15 | 14 | 6.4 | 27.4 | 0.00 | 0.00 | 0.00 | 41 | 1015.8 |
| 20260509003248 | 15 | 221 | 12.9 | 30.6 | 0.00 | 0.00 | 0.00 | 42 | 1016.0 |
| 20260509002745 | 15 | 250 | 3.2 | 27.4 | 0.00 | 0.00 | 0.00 | 42 | 1016.1 |
| 20260509002243 | 15 | 330 | 4.8 | 27.4 | 0.00 | 0.00 | 0.00 | 43 | 1016.3 |
| 20260509001740 | 15 | 250 | 14.5 | 29.0 | 0.00 | 0.00 | 0.00 | 42 | 1016.0 |
| 20260509001236 | 15 | 174 | 9.7 | 27.4 | 0.00 | 0.00 | 0.00 | 42 | 1016.2 |
| 20260509000734 | 15 | 225 | 8.0 | 29.0 | 0.00 | 0.00 | 0.00 | 42 | 1016.1 |
| 20260509000231 | 15 | 218 | 12.9 | 33.8 | 0.00 | 0.00 | 0.00 | 42 | 1015.8 |
| 20260508235728 | 15 | 209 | 11.3 | 41.8 | 0.00 | 0.00 | 0.00 | 42 | 1016.2 |
| 20260508235224 | 15 | 243 | 8.0 | 24.1 | 0.00 | 0.00 | 0.00 | 42 | 1015.8 |
| 20260508234721 | 15 | 211 | 12.9 | 33.8 | 0.00 | 0.00 | 0.00 | 42 | 1016.1 |
| 20260508234217 | 15 | 227 | 16.1 | 35.4 | 0.00 | 0.00 | 0.00 | 42 | 1015.7 |
| 20260508233712 | 15 | 244 | 16.1 | 33.8 | 0.00 | 0.00 | 0.00 | 42 | 1016.0 |
| 20260508233209 | 15 | 225 | 4.8 | 27.4 | 0.00 | 0.00 | 0.00 | 42 | 1015.7 |
| 20260508232706 | 15 | 181 | 9.7 | 30.6 | 0.00 | 0.00 | 0.00 | 42 | 1015.8 |
| 20260508232203 | 15 | 212 | 8.0 | 35.4 | 0.00 | 0.00 | 0.00 | 42 | 1015.6 |
| 20260508231701 | 15 | 232 | 16.1 | 46.7 | 0.00 | 0.00 | 0.00 | 43 | 1015.5 |
| 20260508231157 | 15 | 214 | 9.7 | 37.0 | 0.00 | 0.00 | 0.00 | 42 | 1015.6 |
| 20260508230654 | 15 | 234 | 11.3 | 32.2 | 0.00 | 0.00 | 0.00 | 43 | 1015.4 |
| 20260508230150 | 16 | 213 | 9.7 | 37.0 | 0.00 | 0.00 | 0.00 | 43 | 1015.5 |
| 20260508225648 | 15 | 49 | 6.4 | 20.9 | 0.00 | 0.00 | 0.00 | 44 | 1015.4 |
| 20260508225144 | 15 | 179 | 12.9 | 22.5 | 0.00 | 0.00 | 0.00 | 44 | 1015.4 |
| 20260508224642 | 16 | 97 | 6.4 | 27.4 | 0.00 | 0.00 | 0.00 | 44 | 1015.6 |
| 20260508224140 | 16 | 213 | 4.8 | 24.1 | 0.00 | 0.00 | 0.00 | 43 | 1015.4 |
| 20260508223637 | 16 | 237 | 4.8 | 30.6 | 0.00 | 0.00 | 0.00 | 43 | 1015.5 |
| 20260508223134 | 16 | 218 | 9.7 | 29.0 | 0.00 | 0.00 | 0.00 | 42 | 1015.7 |
| 20260508222632 | 16 | 220 | 8.0 | 29.0 | 0.00 | 0.00 | 0.00 | 42 | 1015.4 |
| 20260508222128 | 16 | 89 | 11.3 | 33.8 | 0.00 | 0.00 | 0.00 | 42 | 1015.2 |
| 20260508221625 | 16 | 234 | 14.5 | 40.2 | 0.00 | 0.00 | 0.00 | 41 | 1015.3 |
| 20260508221120 | 17 | 223 | 14.5 | 41.8 | 0.00 | 0.00 | 0.00 | 40 | 1015.5 |
| 20260508220617 | 17 | 220 | 12.9 | 32.2 | 0.00 | 0.00 | 0.00 | 40 | 1015.4 |
| 20260508220114 | 17 | 213 | 6.4 | 30.6 | 0.00 | 0.00 | 0.00 | 41 | 1015.2 |
| 20260508215611 | 17 | 244 | 11.3 | 27.4 | 0.00 | 0.00 | 0.00 | 40 | 1015.3 |
| 20260508215107 | 17 | 26 | 4.8 | 24.1 | 0.00 | 0.00 | 0.00 | 40 | 1015.5 |
| 20260508214605 | 17 | 209 | 9.7 | 25.7 | 0.00 | 0.00 | 0.00 | 41 | 1015.2 |
| 20260508214101 | 16 | 208 | 11.3 | 32.2 | 0.00 | 0.00 | 0.00 | 41 | 1015.3 |
| 20260508213558 | 16 | 226 | 19.3 | 29.0 | 0.00 | 0.00 | 0.00 | 42 | 1015.3 |
| 20260508213054 | 16 | 262 | 9.7 | 33.8 | 0.00 | 0.00 | 0.00 | 43 | 1015.4 |
| 20260508212551 | 16 | 244 | 11.3 | 30.6 | 0.00 | 0.00 | 0.00 | 43 | 1015.4 |
| 20260508212047 | 16 | 226 | 9.7 | 29.0 | 0.00 | 0.00 | 0.00 | 43 | 1015.3 |
| 20260508211543 | 16 | 187 | 4.8 | 32.2 | 0.00 | 0.00 | 0.00 | 43 | 1015.3 |
| 20260508211039 | 16 | 254 | 9.7 | 19.3 | 0.00 | 0.00 | 0.00 | 43 | 1015.3 |
| 20260508210536 | 16 | 251 | 19.3 | 25.7 | 0.00 | 0.00 | 0.00 | 44 | 1015.2 |
| 20260508210034 | 16 | 201 | 8.0 | 27.4 | 0.00 | 0.00 | 0.00 | 44 | 1015.2 |
| 20260508205530 | 16 | 233 | 25.7 | 27.4 | 0.00 | 0.00 | 0.00 | 44 | 1015.1 |
| 20260508205027 | 16 | 219 | 17.7 | 24.1 | 0.00 | 0.00 | 0.00 | 44 | 1015.1 |
| 20260508204524 | 16 | 202 | 6.4 | 38.6 | 0.00 | 0.00 | 0.00 | 44 | 1015.3 |
| 20260508204019 | 16 | 218 | 19.3 | 30.6 | 0.00 | 0.00 | 0.00 | 44 | 1015.2 |
| 20260508203515 | 16 | 216 | 16.1 | 35.4 | 0.00 | 0.00 | 0.00 | 44 | 1015.0 |
| 20260508203011 | 16 | 169 | 11.3 | 32.2 | 0.00 | 0.00 | 0.00 | 44 | 1015.0 |
| 20260508202509 | 16 | 229 | 20.9 | 37.0 | 0.00 | 0.00 | 0.00 | 43 | 1015.0 |
| 20260508202006 | 16 | 181 | 3.2 | 22.5 | 0.00 | 0.00 | 0.00 | 45 | 1014.7 |
| 20260508201502 | 16 | 181 | 9.7 | 32.2 | 0.00 | 0.00 | 0.00 | 44 | 1014.9 |
| 20260508200959 | 16 | 235 | 14.5 | 32.2 | 0.00 | 0.00 | 0.00 | 44 | 1014.7 |
| 20260508200456 | 16 | 154 | 8.0 | 33.8 | 0.00 | 0.00 | 0.00 | 45 | 1015.0 |
| 20260508195950 | 16 | 180 | 14.5 | 37.0 | 0.00 | 0.00 | 0.00 | 44 | 1014.8 |
| 20260508195448 | 16 | 218 | 9.7 | 35.4 | 0.00 | 0.00 | 0.00 | 44 | 1014.9 |
| 20260508194944 | 16 | 224 | 6.4 | 24.1 | 0.00 | 0.00 | 0.00 | 45 | 1014.6 |
| 20260508194442 | 16 | 222 | 20.9 | 29.0 | 0.00 | 0.00 | 0.00 | 43 | 1014.7 |
| 20260508193938 | 16 | 190 | 8.0 | 17.7 | 0.00 | 0.00 | 0.00 | 44 | 1015.0 |
| 20260508193435 | 16 | 224 | 8.0 | 17.7 | 0.00 | 0.00 | 0.00 | 43 | 1014.9 |
| 20260508192932 | 16 | 224 | 16.1 | 32.2 | 0.00 | 0.00 | 0.00 | 42 | 1014.7 |
| 20260508192429 | 16 | 218 | 3.2 | 19.3 | 0.00 | 0.00 | 0.00 | 43 | 1014.8 |
| 20260508191926 | 16 | 249 | 12.9 | 24.1 | 0.00 | 0.00 | 0.00 | 43 | 1014.6 |
| 20260508191423 | 16 | 216 | 9.7 | 19.3 | 0.00 | 0.00 | 0.00 | 43 | 1014.7 |
| 20260508190920 | 16 | 226 | 9.7 | 16.1 | 0.00 | 0.00 | 0.00 | 44 | 1014.9 |
| 20260508190417 | 15 | 213 | 9.7 | 19.3 | 0.00 | 0.00 | 0.00 | 44 | 1015.1 |
| 20260508185913 | 15 | 238 | 3.2 | 14.5 | 0.00 | 0.00 | 0.00 | 45 | 1015.1 |
| 20260508185410 | 15 | 223 | 11.3 | 29.0 | 0.00 | 0.00 | 0.00 | 45 | 1015.2 |
| 20260508184907 | 15 | 236 | 8.0 | 19.3 | 0.00 | 0.00 | 0.00 | 46 | 1014.9 |
| 20260508184405 | 15 | 240 | 4.8 | 29.0 | 0.00 | 0.00 | 0.00 | 47 | 1015.1 |
| 20260508183902 | 15 | 210 | 4.8 | 24.1 | 0.00 | 0.00 | 0.00 | 48 | 1015.1 |
| 20260508183358 | 15 | 287 | 4.8 | 45.1 | 0.00 | 0.00 | 0.00 | 47 | 1014.9 |
| 20260508182853 | 14 | 234 | 9.7 | 33.8 | 0.00 | 0.00 | 0.00 | 47 | 1015.0 |
| 20260508182351 | 15 | 229 | 6.4 | 24.1 | 0.00 | 0.00 | 0.00 | 47 | 1015.1 |
| 20260508181846 | 14 | 238 | 30.6 | 30.6 | 0.00 | 0.00 | 0.00 | 47 | 1014.8 |
| 20260508181343 | 14 | 285 | 3.2 | 27.4 | 0.00 | 0.00 | 0.00 | 48 | 1014.9 |
| 20260508180840 | 14 | 188 | 6.4 | 48.3 | 0.00 | 0.00 | 0.00 | 48 | 1014.8 |
| 20260508180337 | 14 | 219 | 12.9 | 37.0 | 0.00 | 0.00 | 0.00 | 48 | 1014.9 |
| 20260508175833 | 14 | 283 | 16.1 | 27.4 | 0.00 | 0.00 | 0.00 | 48 | 1014.8 |
| 20260508175330 | 14 | 193 | 4.8 | 24.1 | 0.00 | 0.00 | 0.00 | 49 | 1014.7 |
| 20260508174828 | 14 | 244 | 11.3 | 32.2 | 0.00 | 0.00 | 0.00 | 48 | 1014.9 |
| 20260508174325 | 15 | 228 | 9.7 | 30.6 | 0.00 | 0.00 | 0.00 | 48 | 1014.8 |
| 20260508173821 | 14 | 251 | 17.7 | 25.7 | 0.00 | 0.00 | 0.00 | 48 | 1014.7 |
| 20260508173319 | 14 | 240 | 6.4 | 38.6 | 0.00 | 0.00 | 0.00 | 48 | 1014.8 |
| 20260508172814 | 14 | 232 | 12.9 | 22.5 | 0.00 | 0.00 | 0.00 | 47 | 1015.0 |
| 20260508172312 | 14 | 225 | 8.0 | 30.6 | 0.00 | 0.00 | 0.00 | 48 | 1014.8 |
| 20260508171808 | 14 | 187 | 8.0 | 45.1 | 0.00 | 0.00 | 0.00 | 48 | 1014.9 |
| 20260508171304 | 15 | 183 | 4.8 | 20.9 | 0.00 | 0.00 | 0.00 | 48 | 1014.9 |
| 20260508170801 | 15 | 239 | 14.5 | 24.1 | 0.00 | 0.00 | 0.00 | 48 | 1015.0 |
| 20260508170259 | 15 | 224 | 22.5 | 24.1 | 0.00 | 0.00 | 0.00 | 48 | 1014.9 |
| 20260508165755 | 15 | 233 | 19.3 | 30.6 | 0.00 | 0.00 | 0.00 | 50 | 1014.8 |
| 20260508165253 | 15 | 223 | 3.2 | 30.6 | 0.00 | 0.00 | 0.00 | 51 | 1014.5 |
| 20260508164749 | 15 | 225 | 6.4 | 25.7 | 0.00 | 0.00 | 0.00 | 51 | 1014.5 |
| 20260508164246 | 15 | 241 | 14.5 | 27.4 | 0.00 | 0.00 | 0.00 | 52 | 1014.3 |
| 20260508163744 | 15 | 221 | 4.8 | 25.7 | 0.00 | 0.00 | 0.00 | 53 | 1014.5 |
| 20260508163241 | 15 | 262 | 11.3 | 29.0 | 0.00 | 0.00 | 0.00 | 52 | 1014.4 |
| 20260508162731 | 14 | 258 | 6.4 | 33.8 | 0.00 | 0.00 | 0.00 | 53 | 1014.5 |
| 20260508162228 | 15 | 235 | 14.5 | 24.1 | 0.00 | 0.00 | 0.00 | 52 | 1014.6 |
| 20260508161725 | 15 | 55 | 3.2 | 9.7 | 0.00 | 0.00 | 0.00 | 53 | 1014.4 |
| 20260508161223 | 15 | 350 | 11.3 | 20.9 | 0.00 | 0.00 | 0.00 | 54 | 1014.3 |
| 20260508160720 | 15 | 242 | 9.7 | 24.1 | 0.00 | 0.00 | 0.00 | 53 | 1014.0 |
| 20260508160219 | 15 | 278 | 9.7 | 20.9 | 0.00 | 0.00 | 0.00 | 53 | 1014.3 |
| 20260508155715 | 15 | 282 | 25.7 | 25.7 | 0.00 | 0.00 | 0.00 | 54 | 1014.3 |
| 20260508155212 | 15 | 265 | 8.0 | 29.0 | 0.00 | 0.00 | 0.00 | 53 | 1014.4 |
| 20260508154709 | 14 | 286 | 8.0 | 35.4 | 0.00 | 0.00 | 0.00 | 54 | 1014.0 |
| 20260508154206 | 14 | 249 | 11.3 | 29.0 | 0.00 | 0.00 | 0.00 | 54 | 1014.2 |
| 20260508153702 | 14 | 323 | 8.0 | 19.3 | 0.00 | 0.00 | 0.00 | 54 | 1013.9 |
| 20260508153200 | 14 | 229 | 3.2 | 32.2 | 0.00 | 0.00 | 0.00 | 55 | 1014.0 |
| 20260508152656 | 14 | 272 | 9.7 | 27.4 | 0.00 | 0.00 | 0.00 | 55 | 1014.0 |
| 20260508152152 | 14 | 210 | 6.4 | 14.5 | 0.00 | 0.00 | 0.00 | 55 | 1014.0 |
| 20260508151648 | 14 | 221 | 17.7 | 25.7 | 0.00 | 0.00 | 0.00 | 55 | 1014.3 |
| 20260508151145 | 14 | 255 | 8.0 | 27.4 | 0.00 | 0.00 | 0.00 | 55 | 1014.2 |
| 20260508150642 | 13 | 251 | 9.7 | 29.0 | 0.00 | 0.00 | 0.00 | 56 | 1014.4 |
| 20260508150139 | 13 | 299 | 4.8 | 22.5 | 0.00 | 0.00 | 0.00 | 56 | 1014.2 |
| 20260508145635 | 13 | 353 | 8.0 | 14.5 | 0.00 | 0.00 | 0.00 | 58 | 1014.4 |
| 20260508145131 | 13 | 209 | 8.0 | 11.3 | 0.00 | 0.00 | 0.00 | 58 | 1014.3 |
| 20260508144629 | 13 | 299 | 11.3 | 16.1 | 0.00 | 0.00 | 0.00 | 59 | 1014.3 |
| 20260508144126 | 13 | 302 | 9.7 | 24.1 | 0.00 | 0.00 | 0.00 | 60 | 1014.2 |
| 20260508143624 | 11 | 341 | 11.3 | 12.9 | 0.00 | 0.00 | 0.00 | 67 | 1014.2 |
| 20260508143120 | 11 | 338 | 3.2 | 12.9 | 0.00 | 0.00 | 0.00 | 67 | 1014.4 |
| 20260508142617 | 10 | 236 | 6.4 | 11.3 | 0.00 | 0.00 | 0.00 | 68 | 1014.5 |
| 20260508142114 | 11 | 223 | 4.8 | 6.4 | 0.00 | 0.00 | 0.00 | 66 | 1014.3 |
| 20260508141610 | 11 | 356 | 4.8 | 8.0 | 0.00 | 0.00 | 0.00 | 67 | 1014.4 |
| 20260508141108 | 10 | 352 | 1.6 | 8.0 | 0.00 | 0.00 | 0.00 | 69 | 1014.3 |
| 20260508140605 | 10 | 351 | 4.8 | 9.7 | 0.00 | 0.00 | 0.00 | 69 | 1014.3 |
| 20260508135557 | 10 | 68 | 4.8 | 8.0 | 0.00 | 0.00 | 0.00 | 72 | 1014.4 |
| 20260508135053 | 10 | 6 | 4.8 | 4.8 | 0.00 | 0.00 | 0.00 | 70 | 1014.5 |
| 20260508134550 | 10 | 345 | 3.2 | 4.8 | 0.00 | 0.00 | 0.00 | 72 | 1014.4 |
| 20260508134047 | 10 | 177 | 4.8 | 9.7 | 0.00 | 0.00 | 0.00 | 72 | 1014.4 |
| 20260508133544 | 10 | 55 | 1.6 | 6.4 | 0.00 | 0.00 | 0.00 | 70 | 1014.4 |
| 20260508133041 | 9 | 76 | 3.2 | 6.4 | 0.00 | 0.00 | 0.00 | 70 | 1014.5 |
| 20260508132539 | 8 | 47 | 3.2 | 3.2 | 0.00 | 0.00 | 0.00 | 73 | 1014.6 |
| 20260508132035 | 8 | 68 | 3.2 | 6.4 | 0.00 | 0.00 | 0.00 | 75 | 1014.3 |
| 20260508131530 | 8 | 127 | 3.2 | 6.4 | 0.00 | 0.00 | 0.00 | 75 | 1014.4 |
| 20260508131028 | 7 | 68 | 0.0 | 4.8 | 0.00 | 0.00 | 0.00 | 77 | 1014.5 |
| 20260508130525 | 7 | 9 | 3.2 | 6.4 | 0.00 | 0.00 | 0.00 | 76 | 1014.3 |
| 20260508130021 | 7 | 39 | 3.2 | 4.8 | 0.00 | 0.00 | 0.00 | 76 | 1014.5 |
| 20260508125517 | 7 | 83 | 0.0 | 3.2 | 0.00 | 0.00 | 0.00 | 76 | 1014.6 |
| 20260508125015 | 7 | 71 | 0.0 | 4.8 | 0.00 | 0.00 | 0.00 | 77 | 1014.4 |
| 20260508124513 | 6 | 145 | 1.6 | 4.8 | 0.00 | 0.00 | 0.00 | 79 | 1014.4 |
| 20260508124009 | 6 | 66 | 0.0 | 4.8 | 0.00 | 0.00 | 0.00 | 79 | 1014.2 |
| 20260508123503 | 6 | 115 | 1.6 | 4.8 | 0.00 | 0.00 | 0.00 | 78 | 1014.3 |
| 20260508122958 | 6 | 52 | 0.0 | 4.8 | 0.00 | 0.00 | 0.00 | 78 | 1014.3 |
| 20260508122455 | 6 | 69 | 0.0 | 4.8 | 0.00 | 0.00 | 0.00 | 78 | 1014.3 |
| 20260508121952 | 6 | 133 | 3.2 | 4.8 | 0.00 | 0.00 | 0.00 | 78 | 1014.5 |
| 20260508121451 | 6 | 165 | 1.6 | 4.8 | 0.00 | 0.00 | 0.00 | 78 | 1014.4 |
| 20260508120948 | 6 | 94 | 4.8 | 6.4 | 0.00 | 0.00 | 0.00 | 79 | 1014.2 |
| 20260508120446 | 6 | 271 | 0.0 | 6.4 | 0.00 | 0.00 | 0.00 | 79 | 1014.5 |
| 20260508115943 | 6 | 123 | 3.2 | 4.8 | 0.00 | 0.00 | 0.00 | 78 | 1014.3 |
| 20260508115441 | 6 | 77 | 3.2 | 4.8 | 0.00 | 0.00 | 0.00 | 79 | 1014.4 |
| 20260508114937 | 6 | 101 | 1.6 | 3.2 | 0.00 | 0.00 | 0.00 | 79 | 1014.3 |
| 20260508114435 | 6 | 52 | 3.2 | 4.8 | 0.00 | 0.00 | 0.00 | 79 | 1014.3 |
| 20260508113931 | 6 | 70 | 3.2 | 4.8 | 0.00 | 0.00 | 0.00 | 77 | 1014.3 |
| 20260508113429 | 6 | 8 | 3.2 | 4.8 | 0.00 | 0.00 | 0.00 | 77 | 1014.2 |
| 20260508112926 | 6 | 59 | 4.8 | 6.4 | 0.00 | 0.00 | 0.00 | 78 | 1014.3 |
| 20260508112422 | 6 | 60 | 3.2 | 4.8 | 0.00 | 0.00 | 0.00 | 78 | 1014.0 |
| 20260508111919 | 6 | 69 | 0.0 | 3.2 | 0.00 | 0.00 | 0.00 | 78 | 1014.3 |
| 20260508111416 | 6 | 26 | 3.2 | 4.8 | 0.00 | 0.00 | 0.00 | 77 | 1014.4 |
| 20260508110913 | 6 | 89 | 1.6 | 3.2 | 0.00 | 0.00 | 0.00 | 77 | 1014.2 |
| 20260508110411 | 7 | 51 | 1.6 | 4.8 | 0.00 | 0.00 | 0.00 | 76 | 1014.3 |
| 20260508105910 | 7 | 69 | 0.0 | 6.4 | 0.00 | 0.00 | 0.00 | 75 | 1014.2 |
| 20260508105407 | 7 | 74 | 3.2 | 4.8 | 0.00 | 0.00 | 0.00 | 75 | 1014.3 |
| 20260508104904 | 7 | 86 | 0.0 | 4.8 | 0.00 | 0.00 | 0.00 | 77 | 1013.9 |
| 20260508104401 | 7 | 107 | 1.6 | 4.8 | 0.00 | 0.00 | 0.00 | 76 | 1014.0 |
| 20260508103858 | 7 | 29 | 4.8 | 4.8 | 0.00 | 0.00 | 0.00 | 75 | 1014.2 |
| 20260508103355 | 8 | 10 | 3.2 | 4.8 | 0.00 | 0.00 | 0.00 | 74 | 1014.0 |
| 20260508102853 | 8 | 86 | 3.2 | 4.8 | 0.00 | 0.00 | 0.00 | 73 | 1014.3 |
| 20260508102351 | 8 | 6 | 3.2 | 4.8 | 0.00 | 0.00 | 0.00 | 73 | 1014.2 |
| 20260508101848 | 8 | 116 | 3.2 | 6.4 | 0.00 | 0.00 | 0.00 | 72 | 1014.2 |
| 20260508101345 | 8 | 119 | 3.2 | 4.8 | 0.00 | 0.00 | 0.00 | 72 | 1014.5 |
| 20260508100842 | 8 | 28 | 3.2 | 4.8 | 0.00 | 0.00 | 0.00 | 71 | 1014.0 |
| 20260508100341 | 8 | 89 | 1.6 | 3.2 | 0.00 | 0.00 | 0.00 | 71 | 1014.3 |
| 20260508095836 | 8 | 77 | 0.0 | 4.8 | 0.00 | 0.00 | 0.00 | 70 | 1014.0 |
| 20260508095334 | 8 | 269 | 0.0 | 1.6 | 0.00 | 0.00 | 0.00 | 70 | 1014.2 |
| 20260508094831 | 8 | 67 | 3.2 | 4.8 | 0.00 | 0.00 | 0.00 | 70 | 1014.0 |
| 20260508094328 | 8 | 68 | 4.8 | 6.4 | 0.00 | 0.00 | 0.00 | 70 | 1014.3 |
| 20260508093825 | 8 | 62 | 3.2 | 6.4 | 0.00 | 0.00 | 0.00 | 70 | 1014.3 |
| 20260508093322 | 8 | 53 | 0.0 | 3.2 | 0.00 | 0.00 | 0.00 | 69 | 1014.2 |
| 20260508092820 | 8 | 13 | 3.2 | 4.8 | 0.00 | 0.00 | 0.00 | 69 | 1013.9 |
| 20260508092317 | 8 | 79 | 0.0 | 4.8 | 0.00 | 0.00 | 0.00 | 68 | 1014.2 |
| 20260508091815 | 8 | 66 | 3.2 | 9.7 | 0.00 | 0.00 | 0.00 | 69 | 1014.0 |
| 20260508091311 | 8 | 34 | 1.6 | 3.2 | 0.00 | 0.00 | 0.00 | 70 | 1014.2 |
| 20260508090809 | 8 | 47 | 4.8 | 4.8 | 0.00 | 0.00 | 0.00 | 71 | 1014.2 |
| 20260508090308 | 8 | 82 | 3.2 | 4.8 | 0.00 | 0.00 | 0.00 | 70 | 1014.2 |
| 20260508085803 | 9 | 24 | 3.2 | 4.8 | 0.00 | 0.00 | 0.00 | 69 | 1014.2 |
| 20260508085300 | 9 | 60 | 4.8 | 4.8 | 0.00 | 0.00 | 0.00 | 66 | 1014.2 |
| 20260508084756 | 10 | 62 | 3.2 | 6.4 | 0.00 | 0.00 | 0.00 | 65 | 1014.3 |
| 20260508084253 | 9 | 329 | 0.0 | 4.8 | 0.00 | 0.00 | 0.00 | 65 | 1014.0 |
| 20260508083751 | 9 | 98 | 4.8 | 8.0 | 0.00 | 0.00 | 0.00 | 67 | 1014.3 |
| 20260508083248 | 10 | 356 | 0.0 | 4.8 | 0.00 | 0.00 | 0.00 | 67 | 1014.0 |
| 20260508082748 | 10 | 39 | 4.8 | 4.8 | 0.00 | 0.00 | 0.00 | 66 | 1014.0 |
| 20260508082246 | 10 | 70 | 1.6 | 3.2 | 0.00 | 0.00 | 0.00 | 65 | 1014.2 |
| 20260508081743 | 10 | 317 | 0.0 | 4.8 | 0.00 | 0.00 | 0.00 | 63 | 1014.0 |
| 20260508081240 | 11 | 118 | 3.2 | 6.4 | 0.00 | 0.00 | 0.00 | 63 | 1014.0 |
| 20260508080737 | 11 | 54 | 4.8 | 6.4 | 0.00 | 0.00 | 0.00 | 62 | 1014.0 |
| 20260508080235 | 10 | 99 | 1.6 | 4.8 | 0.00 | 0.00 | 0.00 | 63 | 1014.0 |
| 20260508075731 | 10 | 64 | 0.0 | 1.6 | 0.00 | 0.00 | 0.00 | 63 | 1013.8 |
| 20260508075228 | 10 | 94 | 1.6 | 3.2 | 0.00 | 0.00 | 0.00 | 63 | 1014.0 |
| 20260508074726 | 11 | 51 | 3.2 | 4.8 | 0.00 | 0.00 | 0.00 | 64 | 1013.7 |
| 20260508074223 | 11 | 87 | 0.0 | 4.8 | 0.00 | 0.00 | 0.00 | 64 | 1013.9 |
| 20260508073720 | 11 | 56 | 3.2 | 4.8 | 0.00 | 0.00 | 0.00 | 63 | 1013.8 |
| 20260508073218 | 11 | 63 | 0.0 | 3.2 | 0.00 | 0.00 | 0.00 | 63 | 1013.9 |
| 20260508072714 | 10 | 71 | 0.0 | 3.2 | 0.00 | 0.00 | 0.00 | 63 | 1013.9 |
| 20260508072210 | 11 | 113 | 0.0 | 1.6 | 0.00 | 0.00 | 0.00 | 61 | 1013.8 |
| 20260508071708 | 11 | 44 | 1.6 | 4.8 | 0.00 | 0.00 | 0.00 | 60 | 1013.7 |
| 20260508071206 | 11 | 36 | 0.0 | 3.2 | 0.00 | 0.00 | 0.00 | 60 | 1013.7 |
| 20260508070703 | 12 | 337 | 1.6 | 3.2 | 0.00 | 0.00 | 0.00 | 59 | 1013.6 |
| 20260508070202 | 12 | 39 | 1.6 | 4.8 | 0.00 | 0.00 | 0.00 | 57 | 1013.9 |
| 20260508065659 | 12 | 32 | 0.0 | 3.2 | 0.00 | 0.00 | 0.00 | 57 | 1013.8 |
| 20260508065156 | 12 | 322 | 3.2 | 4.8 | 0.00 | 0.00 | 0.00 | 56 | 1013.9 |
| 20260508064654 | 12 | 78 | 3.2 | 4.8 | 0.00 | 0.00 | 0.00 | 56 | 1013.7 |
| 20260508064152 | 12 | 64 | 0.0 | 3.2 | 0.00 | 0.00 | 0.00 | 56 | 1013.8 |
| 20260508063649 | 13 | 118 | 3.2 | 3.2 | 0.00 | 0.00 | 0.00 | 54 | 1013.9 |
| 20260508063147 | 13 | 347 | 3.2 | 4.8 | 0.00 | 0.00 | 0.00 | 53 | 1013.9 |
| 20260508062644 | 13 | 42 | 3.2 | 4.8 | 0.00 | 0.00 | 0.00 | 51 | 1013.8 |
| 20260508062141 | 14 | 17 | 3.2 | 3.2 | 0.00 | 0.00 | 0.00 | 50 | 1013.8 |
| 20260508061638 | 14 | 265 | 3.2 | 6.4 | 0.00 | 0.00 | 0.00 | 50 | 1013.8 |
| 20260508061136 | 14 | 235 | 1.6 | 6.4 | 0.00 | 0.00 | 0.00 | 50 | 1013.7 |
| 20260508060632 | 14 | 321 | 1.6 | 4.8 | 0.00 | 0.00 | 0.00 | 50 | 1013.5 |
| 20260508060129 | 15 | 14 | 4.8 | 4.8 | 0.00 | 0.00 | 0.00 | 48 | 1013.7 |
| 20260508055625 | 15 | 224 | 3.2 | 6.4 | 0.00 | 0.00 | 0.00 | 48 | 1013.7 |
| 20260508055122 | 15 | 74 | 4.8 | 8.0 | 0.00 | 0.00 | 0.00 | 48 | 1013.8 |
| 20260508054618 | 15 | 3 | 0.0 | 3.2 | 0.00 | 0.00 | 0.00 | 48 | 1013.5 |
| 20260508054116 | 15 | 47 | 1.6 | 6.4 | 0.00 | 0.00 | 0.00 | 47 | 1013.7 |
| 20260508053612 | 15 | 92 | 1.6 | 4.8 | 0.00 | 0.00 | 0.00 | 47 | 1013.7 |
| 20260508053111 | 16 | 313 | 3.2 | 3.2 | 0.00 | 0.00 | 0.00 | 46 | 1013.6 |
| 20260508052608 | 16 | 214 | 1.6 | 4.8 | 0.00 | 0.00 | 0.00 | 44 | 1013.5 |
| 20260508052105 | 17 | 337 | 4.8 | 4.8 | 0.00 | 0.00 | 0.00 | 43 | 1013.3 |
| 20260508051601 | 17 | 358 | 1.6 | 6.4 | 0.00 | 0.00 | 0.00 | 41 | 1013.6 |
| 20260508051056 | 17 | 239 | 4.8 | 8.0 | 0.00 | 0.00 | 0.00 | 41 | 1013.5 |
| 20260508050553 | 18 | 167 | 3.2 | 11.3 | 0.00 | 0.00 | 0.00 | 41 | 1013.3 |
| 20260508050050 | 18 | 220 | 3.2 | 9.7 | 0.00 | 0.00 | 0.00 | 39 | 1013.4 |
| 20260508045546 | 18 | 248 | 8.0 | 19.3 | 0.00 | 0.00 | 0.00 | 39 | 1013.4 |
| 20260508045044 | 18 | 311 | 8.0 | 17.7 | 0.00 | 0.00 | 0.00 | 39 | 1013.4 |
| 20260508044541 | 18 | 267 | 4.8 | 11.3 | 0.00 | 0.00 | 0.00 | 40 | 1013.3 |
| 20260508044037 | 18 | 259 | 1.6 | 8.0 | 0.00 | 0.00 | 0.00 | 39 | 1013.2 |
| 20260508043534 | 18 | 245 | 0.0 | 4.8 | 0.00 | 0.00 | 0.00 | 38 | 1012.9 |
| 20260508043031 | 18 | 286 | 6.4 | 9.7 | 0.00 | 0.00 | 0.00 | 39 | 1013.3 |
| 20260508042528 | 18 | 331 | 3.2 | 3.2 | 0.00 | 0.00 | 0.00 | 38 | 1013.2 |
| 20260508042025 | 18 | 263 | 3.2 | 11.3 | 0.00 | 0.00 | 0.00 | 38 | 1013.2 |
| 20260508041521 | 18 | 345 | 0.0 | 4.8 | 0.00 | 0.00 | 0.00 | 39 | 1013.2 |
| 20260508041018 | 19 | 254 | 3.2 | 4.8 | 0.00 | 0.00 | 0.00 | 38 | 1013.0 |
| 20260508040515 | 19 | 329 | 4.8 | 14.5 | 0.00 | 0.00 | 0.00 | 38 | 1013.0 |
| 20260508040013 | 19 | 256 | 0.0 | 6.4 | 0.00 | 0.00 | 0.00 | 38 | 1013.1 |
| 20260508035509 | 20 | 242 | 1.6 | 16.1 | 0.00 | 0.00 | 0.00 | 38 | 1013.1 |